Flag for Albania Weather past 2 weeks in Durrës, Albania

Now
72 °F

Sunny.


Feels Like: 75 °F
Forecast: 64 / 76 °F
Wind: 7 mph from North

Location: Tirana Airport

Current Time: Oct 1, 2014 at 6:02:52 PM

Latest Report: Oct 1, 2014 at 5:20 PM


Visibility: 10 mi

Pressure: 30.15 "Hg

Humidity: 65%

Dew point: 59 °F

Location of DurrësLocation

Historic Weather in Durrës — Graph

°F

Durrës temperature yesterday

Maximum temperature yesterday: 77 °F (at 12:50 PM)
Minimum temperature yesterday: 48 °F (at 6:20 AM)
Average temperature yesterday: 62 °F

Past Weeks' High & Low Weather Summary

 TemperatureHumidityPressure
High84 °F (Sep 19, 1:20 PM)94% (Sep 17, 12:20 AM)30.39 "Hg (Sep 17, 12:20 AM)
Low46 °F (Sep 24, 3:50 AM)25% (Sep 24, 12:50 PM)29.68 "Hg (Sep 23, 3:50 AM)
Average66 °F69%30.07 "Hg
* Reported Sep 16 4:20 PM — Oct 1 4:50 PM, Durrës, Weather by CustomWeather, © 2014

Note: Actual official high and low records may vary slightly from our data, if they occured in-between our weather recording intervals... More about our weather records

Advertising

Durrës weather history for previous 24 hours

 ConditionsComfort  
Time TempWeatherWind HumidityBarometerVisibility
4:50 PM
Oct 1
73 °FSunny.7 mph61%30.15 "Hg10 mi
4:20 PM73 °FSunny.8 mph57%30.15 "Hg10 mi
3:50 PM75 °FPassing clouds.7 mph54%30.15 "HgN/A
3:20 PM73 °FPassing clouds.8 mph53%30.15 "HgN/A
2:50 PM75 °FPassing clouds.8 mph50%30.15 "HgN/A
2:20 PM79 °FPassing clouds.6 mph51%30.18 "HgN/A
1:50 PM79 °FPassing clouds.5 mph51%30.18 "HgN/A
1:20 PM79 °FPassing clouds.2 mph48%30.18 "HgN/A
12:50 PM77 °FPassing clouds.No wind47%30.18 "HgN/A
12:20 PM75 °FSunny.2 mph50%30.21 "Hg10 mi
11:50 AM73 °FSunny.2 mph57%30.21 "Hg10 mi
11:20 AM72 °FPassing clouds.2 mph61%30.21 "HgN/A
10:50 AM68 °FPassing clouds.3 mph69%30.21 "HgN/A
10:20 AM70 °FPassing clouds.2 mph69%30.21 "HgN/A
9:50 AM68 °FSunny.No wind73%30.21 "Hg10 mi
9:20 AM64 °FSunny.No wind78%30.24 "Hg10 mi
8:50 AM63 °FPassing clouds.No wind77%30.21 "HgN/A
8:20 AM59 °FScattered clouds.No wind88%30.24 "Hg5 mi
7:50 AM54 °FPassing clouds.No wind94%30.21 "Hg4 mi
7:20 AM54 °FPassing clouds.2 mph94%30.21 "Hg4 mi
6:50 AM54 °FFog.2 mph94%30.21 "Hg2 mi
6:20 AM54 °FFog.3 mph88%30.21 "Hg1 mi
5:50 AM54 °FFog.3 mph88%30.21 "Hg1 mi
5:20 AM52 °FFog.3 mph94%30.21 "Hg2 mi
4:50 AM54 °FFog.2 mph94%30.21 "Hg1 mi
4:20 AM54 °FFog.2 mph94%30.21 "Hg1 mi
3:50 AM54 °FFog.3 mph94%30.24 "Hg1 mi
3:20 AM54 °FFog.3 mph94%30.24 "Hg1 mi
2:50 AM54 °FFog.2 mph94%30.24 "Hg1 mi
2:20 AM54 °FFog.2 mph94%30.24 "Hg2 mi
1:50 AM54 °FFog.2 mph94%30.24 "Hg1 mi
1:20 AM55 °FFog.2 mph88%30.24 "Hg2 mi
12:50 AM55 °FFog.3 mph94%30.27 "Hg2 mi
12:20 AM55 °FFog.3 mph94%30.27 "Hg2 mi
11:50 PM
Sep 30
55 °FClear.3 mph94%30.27 "Hg4 mi
11:20 PM55 °FFog.3 mph94%30.27 "Hg3 mi
10:50 PM57 °FFog.No wind88%30.27 "Hg2 mi
10:20 PM57 °FFog.2 mph94%30.27 "Hg3 mi
9:50 PM59 °FFog.3 mph88%30.27 "Hg3 mi
9:20 PM59 °FFog.3 mph94%30.27 "Hg3 mi
8:50 PM59 °FClear.2 mph94%30.27 "Hg10 mi
8:20 PM61 °FClear.2 mph88%30.27 "Hg10 mi
7:50 PM61 °FClear.No wind94%30.27 "Hg10 mi
7:20 PM63 °FSunny.2 mph88%30.27 "Hg10 mi
6:50 PM64 °FSunny.No wind83%30.27 "Hg10 mi
6:20 PM66 °FSunny.5 mph73%30.27 "Hg10 mi
Weather by CustomWeather, © 2014

See weather overviewHow to use our weather pages